Home   Weather   Allschwil   Past weeks

Flag for Switzerland Past Weather in Allschwil, Basel-Land, Switzerland — Yesterday and Last 2 Weeks

Now
58 °F

Scattered clouds.


Feels Like: 58 °F
Forecast: 49 / 75 °F
Wind: 6 mph from Southeast

Location: Bale-Mulhouse

Current Time: Sep 28, 2016 at 10:42:14 AM

Latest Report: Sep 28, 2016 at 10:00 AM


Visibility: 6 mi

Pressure: 30.45 "Hg

Humidity: 85%

Dew Point: 54 °F

Location of AllschwilLocation

Past Weather in Allschwil — Graph

°F

Allschwil Temperature Yesterday

Maximum temperature yesterday: 70 °F (at 5:00 PM)
Minimum temperature yesterday: 53 °F (at 11:00 PM)
Average temperature yesterday: 61 °F

High & Low Weather Summary for the Past Weeks

 TemperatureHumidityPressure
High88 °F (Sep 13, 5:00 PM)98% (Sep 17, 8:00 AM)30.44 "Hg (Sep 17, 8:00 AM)
Low42 °F (Sep 24, 7:00 AM)35% (Sep 13, 5:00 PM)29.78 "Hg (Sep 15, 3:00 AM)
Average60 °F81%30.09 "Hg
* Reported Sep 13 9:00 AM — Sep 28 9:00 AM, Allschwil, Weather by CustomWeather, © 2016

Note: Actual official high and low records may vary slightly from our data, if they occured in-between our weather recording intervals... More about our weather records

Advertising

Allschwil Weather History for the Previous 24 Hours

Scroll right to see more
 ConditionsComfort  
Time TempWeatherWind HumidityBarometerVisibility
9:00 AM
Wed, Sep 28
53 °FPartly sunny.6 mph97%30.44 "Hg4 mi
8:00 AM51 °FFog.5 mph98%30.44 "Hg2 mi
7:00 AM51 °FFog.3 mph97%30.43 "Hg1 mi
6:00 AM49 °FFog.3 mph98%30.42 "Hg2 mi
5:00 AM47 °FFog.3 mph96%30.42 "Hg2 mi
4:00 AM48 °FCool.3 mph96%30.41 "Hg2 mi
3:00 AM49 °FHeavy rain. Overcast.2 mph97%30.41 "Hg1 mi
2:00 AM50 °FCool.1 mph95%30.41 "Hg1 mi
1:00 AM51 °FHeavy rain. Overcast.2 mph95%30.40 "Hg1 mi
12:00 AM52 °FPassing clouds.3 mph96%30.39 "Hg3 mi
11:00 PM
Tue, Sep 27
53 °FPassing clouds.3 mph95%30.38 "Hg5 mi
10:00 PM55 °FClear.3 mph90%30.37 "Hg7 mi
9:00 PM58 °FPassing clouds.3 mph89%30.35 "Hg7 mi
8:00 PM60 °FPassing clouds.5 mph85%30.33 "Hg9 mi
7:00 PM66 °FPassing clouds.2 mph70%30.31 "Hg11 mi
6:00 PM69 °FPassing clouds.3 mph63%30.29 "Hg11 mi
5:00 PM70 °FPassing clouds.3 mph61%30.27 "Hg11 mi
4:00 PM70 °FScattered clouds.2 mph60%30.28 "Hg11 mi
3:00 PM69 °FPassing clouds.2 mph64%30.29 "Hg9 mi
2:00 PM68 °FOvercast.6 mph69%30.29 "Hg7 mi
1:00 PM66 °FOvercast.5 mph74%30.30 "Hg7 mi
12:00 PM63 °FOvercast.3 mph81%30.31 "Hg7 mi
11:00 AM62 °FOvercast.3 mph85%30.30 "Hg7 mi
10:00 AM60 °FOvercast.7 mph87%30.29 "Hg6 mi
Weather by CustomWeather, © 2016

See weather overviewHow to use our weather pages